www.pogodaiklimat.ru

Погода и климат >> Архив погоды >> Россия >> Якутия >> Верхоянск


АРХИВ ПОГОДЫ в Верхоянске

Время (UTC), дата Ветер
(напр.,м/с)
 
Видим.   Явления Облачность Т
(С)
Тd
(С)
f
(%)
Тe
(С)
Тes
(С)
Комфортность P
(гПа)
Po
(гПа)
Тmin
(С)
Tmax
(С)
R
(мм)
S
(см)
15 14.02 штиль 0 10 км дым ясно -43.4 -45.7 78 -43 -43 опасность
обморожения
1025.5 1004.9
18 14.02 штиль 0 10 км дым ясно -44.8 -47.2 77 -45 -45 опасность
обморожения
1025.7 1004.9
21 14.02 ЮЗ 1 10 км дым ясно -46.0 -48.1 79 -52 -52 опасность
обморожения
1026.3 1005.4 -46.3 33
00 15.02 З 1 50 км ясно -46.4 -48.5 79 -52 -52 опасность
обморожения
1026.5 1005.6 -46.7
03 15.02 штиль 0 50 км ясно -41.6 -43.7 80 -42 -41 опасность
обморожения
1026.0 1005.5
06 15.02 ЮЗ 1 50 км ясно -37.2 -39.9 76 -42 -42 опасность
обморожения
1025.6 1005.5
09 15.02 штиль 0 20 км ясно -42.1 -44.3 79 -42 -42 опасность
обморожения
1026.1 1005.6 -37.2
12 15.02 штиль 0 20 км ясно -45.6 -48.1 76 -46 -46 опасность
обморожения
1027.0 1006.2
15 15.02 штиль 0 20 км ясно -47.0 -49.0 80 -47 -47 опасность
обморожения
1026.7 1005.7
18 15.02 З 1 20 км ясно -48.0 -50.0 80 -54 -54 опасность
обморожения
1026.8 1005.7
21 15.02 штиль 0 20 км ясно -48.7 -51.2 75 -49 -49 опасность
обморожения
1027.0 1005.8 -48.7 33
00 16.02 штиль 0 50 км ясно -48.8 -51.2 76 -49 -49 опасность
обморожения
1027.9 1006.7 -49.0
03 16.02 ЮЗ 1 50 км ясно -43.4 -45.7 78 -49 -48 опасность
обморожения
1027.1 1006.5
06 16.02 З 1 50 км ясно -39.4 -41.7 79 -45 -44 опасность
обморожения
1026.1 1005.8
09 16.02 штиль 0 20 км ясно -44.1 -46.4 78 -44 -44 опасность
обморожения
1026.8 1006.1 -39.4
12 16.02 штиль 0 20 км ясно -47.0 -49.2 78 -47 -47 опасность
обморожения
1027.0 1006.0
15 16.02 штиль 0 4000 м дымка ясно -48.2 -50.4 78 -48 -48 опасность
обморожения
1026.6 1005.5
18 16.02 штиль 0 20 км ясно -49.5 -51.6 78 -50 -50 опасность
обморожения
1026.3 1005.1
21 16.02 штиль 0 20 км ясно -50.0 -52.1 78 -50 -50 опасность
обморожения
1026.3 1005.0 -50.0 33
00 17.02 штиль 0 10 км дым ясно -49.8 -51.2 85 -50 -50 опасность
обморожения
1025.7 1004.5 +50.2
03 17.02 З 1 20 км дым ясно -45.0 -47.2 78 -51 -50 опасность
обморожения
1024.5 1003.7
06 17.02 штиль 0 50 км 3/0
[Ci fib]
-41.0 -43.8 74 -41 -41 опасность
обморожения
1023.4 1002.9
09 17.02 штиль 0 20 км ясно -43.7 -46.3 75 -44 -44 опасность
обморожения
1022.8 1002.2 -41.0
12 17.02 штиль 0 20 км ясно -46.5 -49.0 75 -47 -47 опасность
обморожения
1022.9 1002.0
15 17.02 штиль 0 10 км дым ясно -47.1 -49.0 81 -47 -47 опасность
обморожения
1022.3 1001.4
18 17.02 штиль 0 10 км дым ясно -47.6 -50.0 76 -48 -48 опасность
обморожения
1021.5 1000.5
21 17.02 штиль 0 20 км ясно -47.5 -50.0 75 -48 -48 опасность
обморожения
1021.0 1000.0 -47.8 33
00 18.02 штиль 0 10 км дым 3/0
[Ci fib]
-47.5 -49.7 78 -48 -47 опасность
обморожения
1020.5 999.5 -47.7
03 18.02 штиль 0 50 км в посл. час снег 5/0
[Ci fib]
-41.7 -43.9 79 -42 -41 опасность
обморожения
1018.9 998.5
06 18.02 штиль 0 50 км {снег} 1/0
[Ci fib]
-37.8 -40.2 78 -38 -38 опасность
обморожения
1017.8 997.7
09 18.02 штиль 0 20 км ясно -41.8 -44.2 77 -42 -42 опасность
обморожения
1018.1 997.7 -37.8 0.0
12 18.02 штиль 0 20 км ясно -45.3 -47.2 81 -45 -45 опасность
обморожения
1019.6 997.7
15 18.02 штиль 0 20 км ясно -46.2 -48.1 81 -46 -46 опасность
обморожения
1018.5 997.7
18 18.02 штиль 0 20 км ясно -47.2 -49.0 82 -47 -47 опасность
обморожения
1018.8 997.9
21 18.02 штиль 0 20 км ясно -47.5 -50.0 75 -48 -48 опасность
обморожения
1019.0 998.1 -47.6 33
00 19.02 штиль 0 50 км 1/0
[Ci fib]
-47.5 -50.0 75 -48 -47 опасность
обморожения
1020.0 999.0 -48.0
03 19.02 З 1 50 км 1/0
[Ci fib]
-41.2 -43.2 81 -47 -45 опасность
обморожения
1018.9 998.5
06 19.02 штиль 0 50 км 1/0
[Ci fib]
-36.6 -39.4 75 -37 -36 опасность
обморожения
1017.9 997.9
09 19.02 штиль 0 20 км 1/0
[Ci fib]
-41.0 -43.2 79 -41 -41 опасность
обморожения
1018.7 998.3 -36.6
12 19.02 штиль 0 4000 м дымка ясно -44.7 -46.9 78 -45 -45 опасность
обморожения
1019.0 998.3
15 19.02 З 1 20 км ясно -45.7 -47.9 78 -52 -52 опасность
обморожения
1019.2 998.4
21 19.02 штиль 0 20 км ясно -47.2 -49.4 78 -47 -47 опасность
обморожения
1020.2 999.3 -47.2 33
00 20.02 З 1 20 км дым ясно -46.9 -49.0 79 -53 -53 опасность
обморожения
1021.3 1000.4 -47.5
03 20.02 ЮЗ 1 50 км ясно -39.7 -42.3 76 -45 -44 опасность
обморожения
1020.9 1000.6
06 20.02 штиль 0 50 км ясно -36.6 -39.4 75 -37 -36 опасность
обморожения
1020.8 1000.8
09 20.02 штиль 0 20 км ясно -41.3 -43.8 77 -41 -41 опасность
обморожения
1022.6 1002.1 -36.6
12 20.02 штиль 0 20 км ясно -43.5 -45.7 79 -44 -44 опасность
обморожения
1024.1 1003.4
15 20.02 штиль 0 20 км ясно -45.5 -47.2 83 -46 -46 опасность
обморожения
1024.8 1003.9
18 20.02 штиль 0 20 км ясно -46.6 -49.0 76 -47 -47 опасность
обморожения
1025.1 1004.1
21 20.02 штиль 0 20 км ясно -47.3 -49.0 82 -47 -47 опасность
обморожения
1026.2 1005.2 -47.5 33
00 21.02 штиль 0 20 км дым 4/0
[Ci fib]
-47.8 -50.0 78 -48 -48 опасность
обморожения
1026.7 1005.6 -48.1
03 21.02 штиль 0 50 км 8/0
[Cs]
-42.8 -45.0 79 -43 -42 опасность
обморожения
1026.4 1005.8
06 21.02 штиль 0 50 км 4/0
[Ci fib]
-38.4 -40.8 78 -38 -38 опасность
обморожения
1025.5 1005.3
09 21.02 штиль 0 20 км 3/0
[Ci fib]
-40.4 -42.8 78 -40 -40 опасность
обморожения
1026.6 1006.2 -38.4
12 21.02 штиль 0 20 км ясно -43.3 -45.7 77 -43 -43 опасность
обморожения
1027.1 1006.5

 

Местоположение метеостанции Верхоянск (Якутия, Россия): широта 67.57 долгота 133.40 высота над уровнем моря 136 м.

В архиве по умолчанию представлена погода в Верхоянске за последнюю неделю. Архивные данные за месяц целиком и за предыдущие месяцы, начиная с января 2011 года, Вы можете получить, выбрав интересующий диапазон дат из раскрывающегося списка и нажав кнопку "Ввод!".

Внимание! Время в таблицах - всемирное. Для получения местного времени необходимо прибавить поправку, которая в Верхоянске равна 10 ч.

Смотрите также архив погоды в соседних городах и на ближайших метеорологических станциях:

Погода в Батагае (Якутия, Россия) (52 км)
Погода в Екюччю (Якутия, Россия) (118 км)
Погода в Батагай-Алыте (Якутия, Россия) (129 км)
Погода в Усть-Чарках (Якутия, Россия) (162 км)
Погода в Иэме (Якутия, Россия) (274 км)
Погода в Усть-Куйге (Якутия, Россия) (284 км)
Погода в Себян-Кюеле (Якутия, Россия) (294 км)
Погода в Депутатском (Якутия, Россия) (329 км)
Погода в Юбилейной (Якутия, Россия) (373 км)
Погода в Джарджане (Якутия, Россия) (409 км)

Пояснения к столбцам:

Ветер - указаны скорость ветра в м/с - средняя за 10 мин, порывы в срок и между сроками (в фигурных скобках) и направление, откуда дует ветер: С - северный, СВ - северо-восточный, В - восточный, ЮВ - юго-восточный, Ю - южный, ЮЗ - юго-западный, З - западный, СЗ - северо-западный.
Видимость - горизонтальная дальность видимости в метрах или километрах. При видимости от 1 до 10 км при отсутствии осадков обычно наблюдается дымка, при ухудшении видимости до 1 км и менее - туман. В сухую погоду видимость может ухудшаться дымом, пылью или мглою.
Явления - указаны атмосферные явления, наблюдавшиеся в срок или в последний час перед сроком; фигурными скобками обозначены явления, наблюдавшиеся между сроками (за 1-3 часа до срока); квадратными скобками обозначены град или гололедные отложения с указанием их диаметра в мм.
Облачность - указаны через наклонную черту общая и нижняя облачность в баллах и высота нижней границы облаков в метрах; квадратными скобками обозначены формы облаков: Ci - перистые, Cs - перисто-слоистые, Cc - перисто-кучевые, Ac - высококучевые, As - высокослоистые, Sc - слоисто-кучевые, Ns - слоисто-дождевые, Cu - кучевые, Cb - кучево-дождевые. Подробнее классификацию облаков см. в Атласе облаков (PDF).
T - Температура воздуха - температура, измеренная на высоте 2 м над землей.
Td - Температура точки росы - температура, при понижении до которой содержащийся в воздухе водяной пар достигнет насыщения.
f - Относительная влажность воздуха - влажноcть воздуха, измеренная на высоте 2 м над землей.
Te - Эффективная температура - температура, которую ощущает одетый по сезону человек в тени. Характеристика душности погоды. При расчете учитывается влияние влажности воздуха и скорости ветра на теплоощущения человека.
Tes - Эффективная температура на солнце - температура, которую ощущает человек, с поправкой на солнечный нагрев. Характеристика знойности погоды. Зависит от высоты солнца над горизонтом, облачности и скорости ветра. Ночью, в пасмурную погоду, а также при ветре 12 м/с и более поправка равна нулю.
P - Атмосферное давление - приведенное к уровню моря атмосферное давление.
Po - Атмосферное давление - измеренное на уровне метеостанции атмосферное давление.
Tmin - Минимальная температура - минимум температуры воздуха на высоте 2 м над землей.
Tmax - Максимальная температура - максимум температуры воздуха на высоте 2 м над землей.
R - Количество осадков - Количество выпавших осадков, мм. При наведении курсора мыши на число - период времени, за который выпало указанное количество осадков.
S - Снежный покров - Высота снежного покрова, см. При наведении курсора мыши на число - состояние снежного покрова и степень покрытия местности в баллах.